Weather History for Toms River, NJ

Change the Weather History Date:

Sunday, May 18, 2014

  Actual Average Record
Temperature  
Mean Temperature 50 °F -  
Max Temperature 64 °F 74 °F 93 °F (1974)
Min Temperature 37 °F 51 °F 36 °F (1983)
Degree Days  
Heating Degree Days 14    
Moisture  
Dew Point 41 °F    
Average Humidity 64    
Maximum Humidity 100    
Minimum Humidity 37    
Precipitation  
Precipitation 0.00 in - - ()
Sea Level Pressure  
Sea Level Pressure 30.16 in    
Wind  
Wind Speed 1 mph (NNW)    
Max Wind Speed 9 mph    
Max Gust Speed -    
Visibility 10 miles    
Events      
Averages and records for this station are not official NWS values.
T = Trace of Precipitation, MM = Missing Value Source: NWS Daily Summary

Daily Weather History Graph

Daily Weather History Graph

Search for Another Location

Airport:

Trip Planner

Search our weather history database for the weather conditions in past years. The results will help you decide how hot, cold, wet, or windy it might be!

Date:

Astronomy

May. 18, 2014 Rise Set
Actual Time 5:39 AM EDT 8:08 PM EDT
Civil Twilight 5:08 AM EDT 8:39 PM EDT
Nautical Twilight 4:30 AM EDT 9:17 PM EDT
Astronomical Twilight 3:47 AM EDT 10:00 PM EDT
Moon 11:54 PM EDT (5/18) 9:25 AM EDT (5/18)
Length of Visible Light 15h 30m
Length of Day
14h 28m
Waning Gibbous, 81% of the Moon is Illuminated
May 18
Waning Gibbous
May 21
Last Quarter
May 28
New
Jun 5
First Quarter
Jun 13
Full

Hourly Weather History & Observations

Time (EDT) Temp. Dew Point Humidity Pressure Visibility Wind Dir Wind Speed Gust Speed Precip Events Conditions
12:15 AM 44.6 °F 42.8 °F 93% 30.13 in 10.0 mi Calm Calm - N/A   Clear
12:35 AM 48.2 °F 41.0 °F 76% 30.13 in 10.0 mi Calm Calm - N/A   Clear
12:55 AM 46.4 °F 42.8 °F 87% 30.13 in 10.0 mi Calm Calm - N/A   Clear
1:15 AM 41.0 °F 41.0 °F 100% 30.12 in 10.0 mi Calm Calm - N/A   Clear
1:35 AM 37.4 °F 37.4 °F 100% 30.12 in 10.0 mi Calm Calm - N/A   Clear
1:55 AM 46.4 °F 41.0 °F 81% 30.12 in 10.0 mi Calm Calm - N/A   Clear
2:15 AM 44.6 °F 39.2 °F 81% 30.13 in 10.0 mi Calm Calm - N/A   Clear
2:35 AM 44.6 °F 39.2 °F 81% 30.13 in 10.0 mi Calm Calm - N/A   Clear
2:55 AM 44.6 °F 41.0 °F 87% 30.13 in 8.0 mi Calm Calm - N/A   Clear
3:15 AM 44.6 °F 39.2 °F 81% 30.14 in 6.0 mi Calm Calm - N/A   Clear
3:35 AM 42.8 °F 37.4 °F 81% 30.14 in 10.0 mi Calm Calm - N/A   Clear
3:55 AM 42.8 °F 37.4 °F 81% 30.14 in 10.0 mi Calm Calm - N/A   Clear
4:15 AM 46.4 °F 41.0 °F 81% 30.15 in 10.0 mi Calm Calm - N/A   Clear
4:35 AM 42.8 °F 37.4 °F 81% 30.15 in 10.0 mi Calm Calm - N/A   Clear
4:55 AM 42.8 °F 37.4 °F 81% 30.15 in 9.0 mi Calm Calm - N/A   Clear
5:15 AM 39.2 °F 35.6 °F 87% 30.16 in 9.0 mi Calm Calm - N/A   Clear
5:35 AM 41.0 °F 37.4 °F 87% 30.17 in 8.0 mi Calm Calm - N/A   Clear
5:55 AM 41.0 °F 37.4 °F 87% 30.18 in 5.0 mi Calm Calm - N/A   Clear
6:15 AM 42.8 °F 39.2 °F 87% 30.18 in 5.0 mi Calm Calm - N/A   Clear
6:35 AM 42.8 °F 39.2 °F 87% 30.18 in 9.0 mi Calm Calm - N/A   Clear
6:55 AM 46.4 °F 42.8 °F 87% 30.19 in 10.0 mi Calm Calm - N/A   Clear
7:15 AM 46.4 °F 42.8 °F 87% 30.19 in 10.0 mi Calm Calm - N/A   Clear
7:35 AM 42.8 °F 42.8 °F 100% 30.19 in 10.0 mi Calm Calm - N/A   Partly Cloudy
7:55 AM 55.4 °F 42.8 °F 63% 30.20 in 10.0 mi WNW 6.9 mph - N/A   Partly Cloudy
8:15 AM 55.4 °F 42.8 °F 63% 30.20 in 10.0 mi NW 4.6 mph - N/A   Scattered Clouds
8:35 AM 55.4 °F 42.8 °F 63% 30.20 in 10.0 mi NNW 5.8 mph - N/A   Partly Cloudy
8:55 AM 57.2 °F 42.8 °F 59% 30.20 in 10.0 mi North 4.6 mph - N/A   Clear
9:15 AM 57.2 °F 42.8 °F 59% 30.20 in 10.0 mi Calm Calm - N/A   Clear
9:35 AM 60.8 °F 44.6 °F 55% 30.20 in 10.0 mi Calm Calm - N/A   Clear
9:55 AM 60.8 °F 42.8 °F 52% 30.19 in 10.0 mi North 3.5 mph - N/A   Clear
10:15 AM 62.6 °F 42.8 °F 48% 30.19 in 10.0 mi Calm Calm - N/A   Clear
10:35 AM 62.6 °F 42.8 °F 48% 30.19 in 10.0 mi North 3.5 mph - N/A   Partly Cloudy
10:55 AM 64.4 °F 42.8 °F 45% 30.19 in 10.0 mi NNW 5.8 mph - N/A   Mostly Cloudy
11:15 AM 62.6 °F 39.2 °F 42% 30.19 in 10.0 mi Calm Calm - N/A   Mostly Cloudy
11:35 AM 64.4 °F 39.2 °F 40% 30.18 in 10.0 mi WNW 4.6 mph - N/A   Mostly Cloudy
11:55 AM 62.6 °F 44.6 °F 52% 30.18 in 10.0 mi Calm Calm - N/A   Overcast
12:15 PM 62.6 °F 44.6 °F 52% 30.17 in 10.0 mi Calm Calm - N/A   Overcast
12:35 PM 64.4 °F 44.6 °F 49% 30.17 in 10.0 mi Calm Calm - N/A   Mostly Cloudy
12:55 PM 62.6 °F 44.6 °F 52% 30.17 in 10.0 mi SSE 3.5 mph - N/A   Mostly Cloudy
1:15 PM 62.6 °F 42.8 °F 48% 30.16 in 10.0 mi SE 5.8 mph - N/A   Mostly Cloudy
1:35 PM 62.6 °F 44.6 °F 52% 30.16 in 10.0 mi Calm Calm - N/A   Mostly Cloudy
1:55 PM 60.8 °F 41.0 °F 48% 30.16 in 10.0 mi East 3.5 mph - N/A   Mostly Cloudy
2:15 PM 62.6 °F 42.8 °F 48% 30.16 in 10.0 mi ESE 3.5 mph - N/A   Overcast
2:35 PM 62.6 °F 42.8 °F 48% 30.15 in 10.0 mi Calm Calm - N/A   Overcast
2:55 PM 62.6 °F 42.8 °F 48% 30.15 in 10.0 mi Calm Calm - N/A   Mostly Cloudy
3:15 PM 62.6 °F 41.0 °F 45% 30.14 in 10.0 mi Calm Calm - N/A   Overcast
3:35 PM 64.4 °F 42.8 °F 45% 30.14 in 10.0 mi NW 3.5 mph - N/A   Overcast
3:55 PM 64.4 °F 41.0 °F 42% 30.13 in 10.0 mi West 5.8 mph - N/A   Overcast
4:15 PM 62.6 °F 44.6 °F 52% 30.14 in 10.0 mi Calm Calm - N/A   Overcast
4:35 PM 60.8 °F 42.8 °F 52% 30.14 in 10.0 mi East 4.6 mph - N/A   Overcast
4:55 PM 62.6 °F 44.6 °F 52% 30.14 in 10.0 mi WSW 6.9 mph - N/A   Overcast
5:15 PM 64.4 °F 37.4 °F 37% 30.14 in 10.0 mi NW 8.1 mph - N/A   Overcast
5:35 PM 64.4 °F 37.4 °F 37% 30.14 in 10.0 mi NW 6.9 mph - N/A   Overcast
5:55 PM 64.4 °F 39.2 °F 40% 30.14 in 10.0 mi NNW 6.9 mph - N/A   Overcast
6:15 PM 64.4 °F 39.2 °F 40% 30.14 in 10.0 mi North 9.2 mph - N/A   Mostly Cloudy
6:35 PM 64.4 °F 37.4 °F 37% 30.14 in 10.0 mi NNW 6.9 mph - N/A   Partly Cloudy
6:55 PM 62.6 °F 37.4 °F 39% 30.14 in 10.0 mi NNW 5.8 mph - N/A   Clear
7:15 PM 62.6 °F 37.4 °F 39% 30.14 in 10.0 mi NNW 6.9 mph - N/A   Clear
7:35 PM 60.8 °F 37.4 °F 42% 30.15 in 10.0 mi NNW 3.5 mph - N/A   Clear
7:55 PM 59.0 °F 37.4 °F 45% 30.15 in 10.0 mi Calm Calm - N/A   Clear
8:15 PM 57.2 °F 39.2 °F 51% 30.15 in 10.0 mi Calm Calm - N/A   Clear
8:35 PM 55.4 °F 39.2 °F 54% 30.16 in 10.0 mi Calm Calm - N/A   Clear
8:55 PM 55.4 °F 39.2 °F 54% 30.16 in 10.0 mi Calm Calm - N/A   Clear
9:15 PM 51.8 °F 41.0 °F 67% 30.17 in 10.0 mi Calm Calm - N/A   Clear
9:35 PM 51.8 °F 42.8 °F 71% 30.17 in 10.0 mi Calm Calm - N/A   Clear
9:55 PM 44.6 °F 39.2 °F 81% 30.18 in 10.0 mi Calm Calm - N/A   Clear
10:15 PM 46.4 °F 37.4 °F 71% 30.18 in 10.0 mi Calm Calm - N/A   Clear
10:35 PM 48.2 °F 39.2 °F 71% 30.18 in 10.0 mi Calm Calm - N/A   Clear
10:55 PM 46.4 °F 37.4 °F 71% 30.18 in 10.0 mi Calm Calm - N/A   Clear
11:15 PM 46.4 °F 37.4 °F 71% 30.18 in 10.0 mi Calm Calm - N/A   Clear
11:35 PM 44.6 °F 39.2 °F 81% 30.18 in 10.0 mi Calm Calm - N/A   Clear
11:55 PM 44.6 °F 37.4 °F 76% 30.18 in 10.0 mi Calm Calm - N/A   Clear